Year,Month,Day,Hour,Minute,Value (Times are PST for temperature in C)
2020,03,27,00,00,-11.80
2020,03,27,00,01,-11.80
2020,03,27,00,02,-11.80
2020,03,27,00,03,-11.80
2020,03,27,00,04,-11.80
2020,03,27,00,05,-11.80
2020,03,27,00,06,-11.80
2020,03,27,00,07,-11.80
2020,03,27,00,08,-11.80
2020,03,27,00,09,-11.80
2020,03,27,00,10,-11.80
2020,03,27,00,11,-11.90
2020,03,27,00,12,-11.90
2020,03,27,00,13,-11.90
2020,03,27,00,14,-11.90
2020,03,27,00,15,-11.90
2020,03,27,00,16,-12.00
2020,03,27,00,17,-12.00
2020,03,27,00,18,-12.00
2020,03,27,00,19,-12.10
2020,03,27,00,20,-12.10
2020,03,27,00,21,-12.10
2020,03,27,00,22,-12.10
2020,03,27,00,23,-12.10
2020,03,27,00,24,-12.10
2020,03,27,00,25,-12.20
2020,03,27,00,26,-12.20
2020,03,27,00,27,-12.30
2020,03,27,00,28,-12.30
2020,03,27,00,29,-12.30
2020,03,27,00,30,-12.40
2020,03,27,00,31,-12.40
2020,03,27,00,32,-12.50
2020,03,27,00,33,-12.50
2020,03,27,00,34,-12.60
2020,03,27,00,35,-12.60
2020,03,27,00,36,-12.70
2020,03,27,00,37,-12.70
2020,03,27,00,38,-12.80
2020,03,27,00,39,-12.80
2020,03,27,00,40,-12.80
2020,03,27,00,41,-12.80
2020,03,27,00,42,-12.80
2020,03,27,00,43,-12.80
2020,03,27,00,44,-12.90
2020,03,27,00,45,-12.90
2020,03,27,00,46,-12.90
2020,03,27,00,47,-12.90
2020,03,27,00,48,-12.90
2020,03,27,00,49,-12.90
2020,03,27,00,50,-12.90
2020,03,27,00,51,-13.00
2020,03,27,00,52,-13.00
2020,03,27,00,53,-13.10
2020,03,27,00,54,-13.10
2020,03,27,00,55,-13.20
2020,03,27,00,56,-13.20
2020,03,27,00,57,-13.30
2020,03,27,00,58,-13.30
2020,03,27,00,59,-13.30
2020,03,27,01,00,-13.40
2020,03,27,01,01,-13.40
2020,03,27,01,02,-13.40
2020,03,27,01,03,-13.40
2020,03,27,01,04,-13.40
2020,03,27,01,05,-13.40
2020,03,27,01,06,-13.40
2020,03,27,01,07,-13.40
2020,03,27,01,08,-13.40
2020,03,27,01,09,-13.50
2020,03,27,01,10,-13.50
2020,03,27,01,11,-13.60
2020,03,27,01,12,-13.60
2020,03,27,01,13,-13.60
2020,03,27,01,14,-13.70
2020,03,27,01,15,-13.70
2020,03,27,01,16,-13.70
2020,03,27,01,17,-13.70
2020,03,27,01,18,-13.70
2020,03,27,01,19,-13.70
2020,03,27,01,20,-13.70
2020,03,27,01,21,-13.60
2020,03,27,01,22,-13.60
2020,03,27,01,23,-13.50
2020,03,27,01,24,-13.50
2020,03,27,01,25,-13.40
2020,03,27,01,26,-13.40
2020,03,27,01,27,-13.30
2020,03,27,01,28,-13.30
2020,03,27,01,29,-13.40
2020,03,27,01,30,-13.40
2020,03,27,01,31,-13.40
2020,03,27,01,32,-13.50
2020,03,27,01,33,-13.50
2020,03,27,01,34,-13.50
2020,03,27,01,35,-13.50
2020,03,27,01,36,-13.60
2020,03,27,01,37,-13.60
2020,03,27,01,38,-13.60
2020,03,27,01,39,-13.70
2020,03,27,01,40,-13.70
2020,03,27,01,41,-13.70
2020,03,27,01,42,-13.70
2020,03,27,01,43,-13.80
2020,03,27,01,44,-13.80
2020,03,27,01,45,-13.80
2020,03,27,01,46,-13.80
2020,03,27,01,47,-13.90
2020,03,27,01,48,-13.90
2020,03,27,01,49,-14.00
2020,03,27,01,50,-14.00
2020,03,27,01,51,-14.00
2020,03,27,01,52,-14.10
2020,03,27,01,53,-14.10
2020,03,27,01,54,-14.10
2020,03,27,01,55,-14.00
2020,03,27,01,56,-14.00
2020,03,27,01,57,-14.00
2020,03,27,01,58,-14.00
2020,03,27,01,59,-14.10
2020,03,27,02,00,-14.10
2020,03,27,02,01,-14.10
2020,03,27,02,02,-14.20
2020,03,27,02,03,-14.20
2020,03,27,02,04,-14.20
2020,03,27,02,05,-14.20
2020,03,27,02,06,-14.20
2020,03,27,02,07,-14.20
2020,03,27,02,08,-14.30
2020,03,27,02,09,-14.30
2020,03,27,02,10,-14.30
2020,03,27,02,11,-14.30
2020,03,27,02,12,-14.30
2020,03,27,02,13,-14.30
2020,03,27,02,14,-14.40
2020,03,27,02,15,-14.40
2020,03,27,02,16,-14.30
2020,03,27,02,17,-14.30
2020,03,27,02,18,-14.30
2020,03,27,02,19,-14.30
2020,03,27,02,20,-14.20
2020,03,27,02,21,-14.20
2020,03,27,02,22,-14.20
2020,03,27,02,23,-14.20
2020,03,27,02,24,-14.10
2020,03,27,02,25,-14.10
2020,03,27,02,26,-14.10
2020,03,27,02,27,-14.10
2020,03,27,02,28,-14.10
2020,03,27,02,29,-14.00
2020,03,27,02,30,-14.00
2020,03,27,02,31,-14.00
2020,03,27,02,32,-14.10
2020,03,27,02,33,-14.10
2020,03,27,02,34,-14.10
2020,03,27,02,35,-14.20
2020,03,27,02,36,-14.20
2020,03,27,02,37,-14.20
2020,03,27,02,38,-14.30
2020,03,27,02,39,-14.40
2020,03,27,02,40,-14.40
2020,03,27,02,41,-14.40
2020,03,27,02,42,-14.40
2020,03,27,02,43,-14.50
2020,03,27,02,44,-14.70
2020,03,27,02,45,-14.70
2020,03,27,02,46,-14.80
2020,03,27,02,47,-14.80
2020,03,27,02,48,-14.80
2020,03,27,02,49,-14.90
2020,03,27,02,50,-14.90
2020,03,27,02,51,-15.00
2020,03,27,02,52,-15.00
2020,03,27,02,53,-15.10
2020,03,27,02,54,-15.20
2020,03,27,02,55,-15.30
2020,03,27,02,56,-15.30
2020,03,27,02,57,-15.40
2020,03,27,02,58,-15.50
2020,03,27,02,59,-15.60
2020,03,27,03,00,-15.60
2020,03,27,03,01,-15.70
2020,03,27,03,02,-15.80
2020,03,27,03,03,-15.80
2020,03,27,03,04,-15.80
2020,03,27,03,05,-15.90
2020,03,27,03,06,-16.00
2020,03,27,03,07,-16.10
2020,03,27,03,08,-16.10
2020,03,27,03,09,-16.20
2020,03,27,03,10,-16.30
2020,03,27,03,11,-16.40
2020,03,27,03,12,-16.50
2020,03,27,03,13,-16.50
2020,03,27,03,14,-16.60
2020,03,27,03,15,-16.70
2020,03,27,03,16,-16.70
2020,03,27,03,17,-16.80
2020,03,27,03,18,-16.80
2020,03,27,03,19,-16.90
2020,03,27,03,20,-17.00
2020,03,27,03,21,-17.00
2020,03,27,03,22,-17.00
2020,03,27,03,23,-17.10
2020,03,27,03,24,-17.10
2020,03,27,03,25,-17.10
2020,03,27,03,26,-17.10
2020,03,27,03,27,-17.10
2020,03,27,03,28,-17.10
2020,03,27,03,29,-17.20
2020,03,27,03,30,-17.20
2020,03,27,03,31,-17.20
2020,03,27,03,32,-17.30
2020,03,27,03,33,-17.30
2020,03,27,03,34,-17.30
2020,03,27,03,35,-17.40
2020,03,27,03,36,-17.40
2020,03,27,03,37,-17.40
2020,03,27,03,38,-17.40
2020,03,27,03,39,-17.40
2020,03,27,03,40,-17.40
2020,03,27,03,41,-17.50
2020,03,27,03,42,-17.50
2020,03,27,03,43,-17.50
2020,03,27,03,44,-17.50
2020,03,27,03,45,-17.60
2020,03,27,03,46,-17.60
2020,03,27,03,47,-17.60
2020,03,27,03,48,-17.70
2020,03,27,03,49,-17.70
2020,03,27,03,50,-17.80
2020,03,27,03,51,-17.80
2020,03,27,03,52,-17.80
2020,03,27,03,53,-17.90
2020,03,27,03,54,-17.90
2020,03,27,03,55,-17.90
2020,03,27,03,56,-18.00
2020,03,27,03,57,-18.00
2020,03,27,03,58,-18.00
2020,03,27,03,59,-18.10
2020,03,27,04,00,-18.10
2020,03,27,04,01,-18.10
2020,03,27,04,02,-18.10
2020,03,27,04,03,-18.10
2020,03,27,04,04,-18.10
2020,03,27,04,05,-18.10
2020,03,27,04,06,-18.10
2020,03,27,04,07,-18.20
2020,03,27,04,08,-18.20
2020,03,27,04,09,-18.20
2020,03,27,04,10,-18.20
2020,03,27,04,11,-18.20
2020,03,27,04,12,-18.30
2020,03,27,04,13,-18.30
2020,03,27,04,14,-18.30
2020,03,27,04,15,-18.30
2020,03,27,04,16,-18.30
2020,03,27,04,17,-18.30
2020,03,27,04,18,-18.30
2020,03,27,04,19,-18.30
2020,03,27,04,20,-18.30
2020,03,27,04,21,-18.30
2020,03,27,04,22,-18.30
2020,03,27,04,23,-18.30
2020,03,27,04,24,-18.30
2020,03,27,04,25,-18.30
2020,03,27,04,26,-18.30
2020,03,27,04,27,-18.30
2020,03,27,04,28,-18.30
2020,03,27,04,29,-18.30
2020,03,27,04,30,-18.30
2020,03,27,04,31,-18.30
2020,03,27,04,32,-18.20
2020,03,27,04,33,-18.10
2020,03,27,04,34,-17.90
2020,03,27,04,35,-17.80
2020,03,27,04,36,-17.70
2020,03,27,04,37,-17.70
2020,03,27,04,38,-17.70
2020,03,27,04,39,-17.70
2020,03,27,04,40,-17.70
2020,03,27,04,41,-17.70
2020,03,27,04,42,-17.70
2020,03,27,04,43,-17.70
2020,03,27,04,44,-17.80
2020,03,27,04,45,-17.80
2020,03,27,04,46,-17.80
2020,03,27,04,47,-17.80
2020,03,27,04,48,-17.80
2020,03,27,04,49,-17.80
2020,03,27,04,50,-17.80
2020,03,27,04,51,-17.90
2020,03,27,04,52,-17.90
2020,03,27,04,53,-18.00
2020,03,27,04,54,-18.10
2020,03,27,04,55,-18.20
2020,03,27,04,56,-18.20
2020,03,27,04,57,-18.30
2020,03,27,04,58,-18.30
2020,03,27,04,59,-18.40
2020,03,27,05,00,-18.50
2020,03,27,05,01,-18.50
2020,03,27,05,02,-18.60
2020,03,27,05,03,-18.60
2020,03,27,05,04,-18.70
2020,03,27,05,05,-18.70
2020,03,27,05,06,-18.80
2020,03,27,05,07,-18.80
2020,03,27,05,08,-18.90
2020,03,27,05,09,-18.90
2020,03,27,05,10,-19.00
2020,03,27,05,11,-19.00
2020,03,27,05,12,-19.10
2020,03,27,05,13,-19.10
2020,03,27,05,14,-19.20
2020,03,27,05,15,-19.20
2020,03,27,05,16,-19.20
2020,03,27,05,17,-19.30
2020,03,27,05,18,-19.30
2020,03,27,05,19,-19.30
2020,03,27,05,20,-19.30
2020,03,27,05,21,-19.40
2020,03,27,05,22,-19.40
2020,03,27,05,23,-19.40
2020,03,27,05,24,-19.30
2020,03,27,05,25,-19.30
2020,03,27,05,26,-19.30
2020,03,27,05,27,-19.30
2020,03,27,05,28,-19.30
2020,03,27,05,29,-19.30
2020,03,27,05,30,-19.30
2020,03,27,05,31,-19.30
2020,03,27,05,32,-19.30
2020,03,27,05,33,-19.30
2020,03,27,05,34,-19.30
2020,03,27,05,35,-19.30
2020,03,27,05,36,-19.30
2020,03,27,05,37,-19.30
2020,03,27,05,38,-19.30
2020,03,27,05,39,-19.30
2020,03,27,05,40,-19.30
2020,03,27,05,41,-19.30
2020,03,27,05,42,-19.40
2020,03,27,05,43,-19.40
2020,03,27,05,44,-19.40
2020,03,27,05,45,-19.40
2020,03,27,05,46,-19.40
2020,03,27,05,47,-19.40
2020,03,27,05,48,-19.50
2020,03,27,05,49,-19.50
2020,03,27,05,50,-19.50
2020,03,27,05,51,-19.60
2020,03,27,05,52,-19.60
2020,03,27,05,53,-19.60
2020,03,27,05,54,-19.60
2020,03,27,05,55,-19.60
2020,03,27,05,56,-19.60
2020,03,27,05,57,-19.60
2020,03,27,05,58,-19.50
2020,03,27,05,59,-19.60
2020,03,27,06,00,-19.60
2020,03,27,06,01,-19.60
2020,03,27,06,02,-19.70
2020,03,27,06,03,-19.70
2020,03,27,06,04,-19.70
2020,03,27,06,05,-19.80
2020,03,27,06,06,-19.80
2020,03,27,06,07,-19.80
2020,03,27,06,08,-19.90
2020,03,27,06,09,-19.90
2020,03,27,06,10,-19.90
2020,03,27,06,11,-20.00
2020,03,27,06,12,-20.00
2020,03,27,06,13,-20.10
2020,03,27,06,14,-20.10
2020,03,27,06,15,-20.10
2020,03,27,06,16,-20.20
2020,03,27,06,17,-20.20
2020,03,27,06,18,-20.20
2020,03,27,06,19,-20.30
2020,03,27,06,20,-20.30
2020,03,27,06,21,-20.30
2020,03,27,06,22,-20.40
2020,03,27,06,23,-20.40
2020,03,27,06,24,-20.40
2020,03,27,06,25,-20.40
2020,03,27,06,26,-20.40
2020,03,27,06,27,-20.40
2020,03,27,06,28,-20.40
2020,03,27,06,29,-20.40
2020,03,27,06,30,-20.40
2020,03,27,06,31,-20.50
2020,03,27,06,32,-20.50
2020,03,27,06,33,-20.60
2020,03,27,06,34,-20.60
2020,03,27,06,35,-20.70
2020,03,27,06,36,-20.80
2020,03,27,06,37,-20.80
2020,03,27,06,38,-20.80
2020,03,27,06,39,-20.90
2020,03,27,06,40,-20.90
2020,03,27,06,41,-21.00
2020,03,27,06,42,-21.00
2020,03,27,06,43,-21.10
2020,03,27,06,44,-21.10
2020,03,27,06,45,-21.10
2020,03,27,06,46,-21.10
2020,03,27,06,47,-21.00
2020,03,27,06,48,-21.00
2020,03,27,06,49,-21.00
2020,03,27,06,50,-21.00
2020,03,27,06,51,-21.00
2020,03,27,06,52,-21.00
2020,03,27,06,53,-21.00
2020,03,27,06,54,-21.10
2020,03,27,06,55,-21.10
2020,03,27,06,56,-21.10
2020,03,27,06,57,-21.10
2020,03,27,06,58,-21.20
2020,03,27,06,59,-21.20
2020,03,27,07,00,-21.20
2020,03,27,07,01,-21.20
2020,03,27,07,02,-21.20
2020,03,27,07,03,-21.20
2020,03,27,07,04,-21.20
2020,03,27,07,05,-21.20
2020,03,27,07,06,-21.30
2020,03,27,07,07,-21.30
2020,03,27,07,08,-21.30
2020,03,27,07,09,-21.30
2020,03,27,07,10,-21.40
2020,03,27,07,11,-21.40
2020,03,27,07,12,-21.40
2020,03,27,07,13,-21.50
2020,03,27,07,14,-21.50
2020,03,27,07,15,-21.50
2020,03,27,07,16,-21.60
2020,03,27,07,17,-21.60
2020,03,27,07,18,-21.70
2020,03,27,07,19,-21.70
2020,03,27,07,20,-21.70
2020,03,27,07,21,-21.70
2020,03,27,07,22,-21.80
2020,03,27,07,23,-21.80
2020,03,27,07,24,-21.80
2020,03,27,07,25,-21.80
2020,03,27,07,26,-21.80
2020,03,27,07,27,-21.80
2020,03,27,07,28,-21.80
2020,03,27,07,29,-21.90
2020,03,27,07,30,-21.90
2020,03,27,07,31,-21.90
2020,03,27,07,32,-21.90
2020,03,27,07,33,-22.00
2020,03,27,07,34,-22.00
2020,03,27,07,35,-22.00
2020,03,27,07,36,-22.10
2020,03,27,07,37,-22.20
2020,03,27,07,38,-22.20
2020,03,27,07,39,-22.20
2020,03,27,07,40,-22.20
2020,03,27,07,41,-22.30
2020,03,27,07,42,-22.30
2020,03,27,07,43,-22.30
2020,03,27,07,44,-22.30
2020,03,27,07,45,-22.30
2020,03,27,07,46,-22.40
2020,03,27,07,47,-22.40
2020,03,27,07,48,-22.40
2020,03,27,07,49,-22.40
2020,03,27,07,50,-22.50
2020,03,27,07,51,-22.50
2020,03,27,07,52,-22.50
2020,03,27,07,53,-22.60
2020,03,27,07,54,-22.60
2020,03,27,07,55,-22.60
2020,03,27,07,56,-22.70
2020,03,27,07,57,-22.70
2020,03,27,07,58,-22.70
2020,03,27,07,59,-22.70
2020,03,27,08,00,-22.70
2020,03,27,08,01,-22.70
2020,03,27,08,02,-22.80
2020,03,27,08,03,-22.80
2020,03,27,08,04,-22.80
2020,03,27,08,05,-22.80
2020,03,27,08,06,-22.90
2020,03,27,08,07,-22.90
2020,03,27,08,08,-22.90
2020,03,27,08,09,-23.00
2020,03,27,08,10,-23.00
2020,03,27,08,11,-23.10
2020,03,27,08,12,-23.10
2020,03,27,08,13,-23.10
2020,03,27,08,14,-23.20
2020,03,27,08,15,-23.20
2020,03,27,08,16,-23.20
2020,03,27,08,17,-23.20
2020,03,27,08,18,-23.30
2020,03,27,08,19,-23.30
2020,03,27,08,20,-23.30
2020,03,27,08,21,-23.30
2020,03,27,08,22,-23.30
2020,03,27,08,23,-23.30
2020,03,27,08,24,-23.30
2020,03,27,08,25,-23.30
2020,03,27,08,26,-23.30
2020,03,27,08,27,-23.40
2020,03,27,08,28,-23.40
2020,03,27,08,29,-23.40
2020,03,27,08,30,-23.40
2020,03,27,08,31,-23.40
2020,03,27,08,32,-23.40
2020,03,27,08,33,-23.40
2020,03,27,08,34,-23.40
2020,03,27,08,35,-23.40
2020,03,27,08,36,-23.40
2020,03,27,08,37,-23.40
2020,03,27,08,38,-23.40
2020,03,27,08,39,-23.30
2020,03,27,08,40,-23.30
2020,03,27,08,41,-23.30
2020,03,27,08,42,-23.30
2020,03,27,08,43,-23.30
2020,03,27,08,44,-23.30
2020,03,27,08,45,-23.30
2020,03,27,08,46,-23.30
2020,03,27,08,47,-23.20
2020,03,27,08,48,-23.20
2020,03,27,08,49,-23.30
2020,03,27,08,50,-23.30
2020,03,27,08,51,-23.30
2020,03,27,08,52,-23.30
2020,03,27,08,53,-23.30
2020,03,27,08,54,-23.30
2020,03,27,08,55,-23.20
2020,03,27,08,56,-23.20
2020,03,27,08,57,-23.20
2020,03,27,08,58,-23.30
2020,03,27,08,59,-23.30
2020,03,27,09,00,-23.30
2020,03,27,09,01,-23.30
2020,03,27,09,02,-23.30
2020,03,27,09,03,-23.40
2020,03,27,09,04,-23.40
2020,03,27,09,05,-23.50
2020,03,27,09,06,-23.50
2020,03,27,09,07,-23.50
2020,03,27,09,08,-23.60
2020,03,27,09,09,-23.60
2020,03,27,09,10,-23.60
2020,03,27,09,11,-23.60
2020,03,27,09,12,-23.60
2020,03,27,09,13,-23.70
2020,03,27,09,14,-23.70
2020,03,27,09,15,-23.70
2020,03,27,09,16,-23.70
2020,03,27,09,17,-23.70
2020,03,27,09,18,-23.70
2020,03,27,09,19,-23.70
2020,03,27,09,20,-23.70
2020,03,27,09,21,-23.70
2020,03,27,09,22,-23.70
2020,03,27,09,23,-23.70
2020,03,27,09,24,-23.70
2020,03,27,09,25,-23.70
2020,03,27,09,26,-23.70
2020,03,27,09,27,-23.60
2020,03,27,09,28,-23.60
2020,03,27,09,29,-23.60
2020,03,27,09,30,-23.60
2020,03,27,09,31,-23.60
2020,03,27,09,32,-23.60
2020,03,27,09,33,-23.60
2020,03,27,09,34,-23.60
2020,03,27,09,35,-23.60
2020,03,27,09,36,-23.60
2020,03,27,09,37,-23.60
2020,03,27,09,38,-23.60
2020,03,27,09,39,-23.60
2020,03,27,09,40,-23.60
2020,03,27,09,41,-23.60
2020,03,27,09,42,-23.60
2020,03,27,09,43,-23.60
2020,03,27,09,44,-23.60
2020,03,27,09,45,-23.60
2020,03,27,09,46,-23.60
2020,03,27,09,47,-23.60
2020,03,27,09,48,-23.60
2020,03,27,09,49,-23.60
2020,03,27,09,50,-23.60
2020,03,27,09,51,-23.60
2020,03,27,09,52,-23.60
2020,03,27,09,53,-23.50
2020,03,27,09,54,-23.50
2020,03,27,09,55,-23.50
2020,03,27,09,56,-23.50
2020,03,27,09,57,-23.40
2020,03,27,09,58,-23.50
2020,03,27,09,59,-23.40
2020,03,27,10,00,-23.40
2020,03,27,10,01,-23.40
2020,03,27,10,02,-23.40
2020,03,27,10,03,-23.40
2020,03,27,10,04,-23.30
2020,03,27,10,05,-23.30
2020,03,27,10,06,-23.30
2020,03,27,10,07,-23.30
2020,03,27,10,08,-23.40
2020,03,27,10,09,-23.30
2020,03,27,10,10,-23.30
2020,03,27,10,11,-23.30
2020,03,27,10,12,-23.30
2020,03,27,10,13,-23.30
2020,03,27,10,14,-23.30
2020,03,27,10,15,-23.30
2020,03,27,10,16,-23.20
2020,03,27,10,17,-23.20
2020,03,27,10,18,-23.20
2020,03,27,10,19,-23.20
2020,03,27,10,20,-23.20
2020,03,27,10,21,-23.20
2020,03,27,10,22,-23.20
2020,03,27,10,23,-23.20
2020,03,27,10,24,-23.10
2020,03,27,10,25,-23.10
2020,03,27,10,26,-23.10
2020,03,27,10,27,-23.00
2020,03,27,10,28,-22.90
2020,03,27,10,29,-22.90
2020,03,27,10,30,-22.80
2020,03,27,10,31,-22.70
2020,03,27,10,32,-22.70
2020,03,27,10,33,-22.60
2020,03,27,10,34,-22.50
2020,03,27,10,35,-22.40
2020,03,27,10,36,-22.30
2020,03,27,10,37,-22.20
2020,03,27,10,38,-22.10
2020,03,27,10,39,-22.00
2020,03,27,10,40,-21.90
2020,03,27,10,41,-21.70
2020,03,27,10,42,-21.60
2020,03,27,10,43,-21.50
2020,03,27,10,44,-21.30
2020,03,27,10,45,-21.10
2020,03,27,10,46,-20.90
2020,03,27,10,47,-20.80
2020,03,27,10,48,-20.60
2020,03,27,10,49,-20.40
2020,03,27,10,50,-20.30
2020,03,27,10,51,-20.20
2020,03,27,10,52,-20.00
2020,03,27,10,53,-20.00
2020,03,27,10,54,-19.90
2020,03,27,10,55,-19.80
2020,03,27,10,56,-19.70
2020,03,27,10,57,-19.70
2020,03,27,10,58,-19.60
2020,03,27,10,59,-19.60
2020,03,27,11,00,-19.50
2020,03,27,11,01,-19.50
2020,03,27,11,02,-19.40
2020,03,27,11,03,-19.40
2020,03,27,11,04,-19.40
2020,03,27,11,05,-19.40
2020,03,27,11,06,-19.30
2020,03,27,11,07,-19.30
2020,03,27,11,08,-19.30
2020,03,27,11,09,-19.20
2020,03,27,11,10,-19.20
2020,03,27,11,11,-19.10
2020,03,27,11,12,-19.00
2020,03,27,11,13,-18.90
2020,03,27,11,14,-18.90
2020,03,27,11,15,-18.80
2020,03,27,11,16,-18.70
2020,03,27,11,17,-18.50
2020,03,27,11,18,-18.40
2020,03,27,11,19,-18.30
2020,03,27,11,20,-18.20
2020,03,27,11,21,-18.10
2020,03,27,11,22,-18.10
2020,03,27,11,23,-18.00
2020,03,27,11,24,-17.90
2020,03,27,11,25,-17.90
2020,03,27,11,26,-17.90
2020,03,27,11,27,-17.80
2020,03,27,11,28,-17.80
2020,03,27,11,29,-17.70
2020,03,27,11,30,-17.70
2020,03,27,11,31,-17.60
2020,03,27,11,32,-17.50
2020,03,27,11,33,-17.40
2020,03,27,11,34,-17.30
2020,03,27,11,35,-17.30
2020,03,27,11,36,-17.30
2020,03,27,11,37,-17.30
2020,03,27,11,38,-17.30
2020,03,27,11,39,-17.20
2020,03,27,11,40,-17.20
2020,03,27,11,41,-17.10
2020,03,27,11,42,-17.00
2020,03,27,11,43,-17.00
2020,03,27,11,44,-16.90
2020,03,27,11,45,-16.80
2020,03,27,11,46,-16.80
2020,03,27,11,47,-16.70
2020,03,27,11,48,-16.60
2020,03,27,11,49,-16.50
2020,03,27,11,50,-16.40
2020,03,27,11,51,-16.20
2020,03,27,11,52,-16.10
2020,03,27,11,53,-16.10
2020,03,27,11,54,-16.00
2020,03,27,11,55,-15.90
2020,03,27,11,56,-15.90
2020,03,27,11,57,-15.80
2020,03,27,11,58,-15.80
2020,03,27,11,59,-15.80
2020,03,27,12,00,-15.70
2020,03,27,12,01,-15.70
2020,03,27,12,02,-15.70
2020,03,27,12,03,-15.70
2020,03,27,12,04,-15.70
2020,03,27,12,05,-15.70
2020,03,27,12,06,-15.60
2020,03,27,12,07,-15.60
2020,03,27,12,08,-15.50
2020,03,27,12,09,-15.40
2020,03,27,12,10,-15.40
2020,03,27,12,11,-15.30
2020,03,27,12,12,-15.30
2020,03,27,12,13,-15.30
2020,03,27,12,14,-15.30
2020,03,27,12,15,-15.30
2020,03,27,12,16,-15.30
2020,03,27,12,17,-15.30
2020,03,27,12,18,-15.30
2020,03,27,12,19,-15.30
2020,03,27,12,20,-15.30
2020,03,27,12,21,-15.30
2020,03,27,12,22,-15.30
2020,03,27,12,23,-15.20
2020,03,27,12,24,-15.20
2020,03,27,12,25,-15.20
2020,03,27,12,26,-15.20
2020,03,27,12,27,-15.20
2020,03,27,12,28,-15.10
2020,03,27,12,29,-15.10
2020,03,27,12,30,-15.10
2020,03,27,12,31,-15.10
2020,03,27,12,32,-15.10
2020,03,27,12,33,-15.10
2020,03,27,12,34,-15.10
2020,03,27,12,35,-15.10
2020,03,27,12,36,-15.10
2020,03,27,12,37,-15.10
2020,03,27,12,38,-15.10
2020,03,27,12,39,-15.00
2020,03,27,12,40,-15.00
2020,03,27,12,41,-15.00
2020,03,27,12,42,-14.90
2020,03,27,12,43,-14.80
2020,03,27,12,44,-14.80
2020,03,27,12,45,-14.70
2020,03,27,12,46,-14.60
2020,03,27,12,47,-14.60
2020,03,27,12,48,-14.50
2020,03,27,12,49,-14.40
2020,03,27,12,50,-14.40
2020,03,27,12,51,-14.30
2020,03,27,12,52,-14.30
2020,03,27,12,53,-14.30
2020,03,27,12,54,-14.20
2020,03,27,12,55,-14.20
2020,03,27,12,56,-14.20
2020,03,27,12,57,-14.10
2020,03,27,12,58,-14.10
2020,03,27,12,59,-14.10
2020,03,27,13,00,-14.10
2020,03,27,13,01,-14.10
2020,03,27,13,02,-14.10
2020,03,27,13,03,-14.10
2020,03,27,13,04,-14.00
2020,03,27,13,05,-14.00
2020,03,27,13,06,-13.90
2020,03,27,13,07,-13.90
2020,03,27,13,08,-13.80
2020,03,27,13,09,-13.80
2020,03,27,13,10,-13.80
2020,03,27,13,11,-13.80
2020,03,27,13,12,-13.90
2020,03,27,13,13,-14.00
2020,03,27,13,14,-14.00
2020,03,27,13,15,-14.10
2020,03,27,13,16,-14.10
2020,03,27,13,17,-14.10
2020,03,27,13,18,-14.00
2020,03,27,13,19,-14.00
2020,03,27,13,20,-13.80
2020,03,27,13,21,-13.80
2020,03,27,13,22,-13.70
2020,03,27,13,23,-13.70
2020,03,27,13,24,-13.70
2020,03,27,13,25,-13.70
2020,03,27,13,26,-13.70
2020,03,27,13,27,-13.60
2020,03,27,13,28,-13.60
2020,03,27,13,29,-13.60
2020,03,27,13,30,-13.50
2020,03,27,13,31,-13.50
2020,03,27,13,32,-13.40
2020,03,27,13,33,-13.30
2020,03,27,13,34,-13.30
2020,03,27,13,35,-13.20
2020,03,27,13,36,-13.10
2020,03,27,13,37,-13.10
2020,03,27,13,38,-13.00
2020,03,27,13,39,-13.00
2020,03,27,13,40,-12.90
2020,03,27,13,41,-12.80
2020,03,27,13,42,-12.80
2020,03,27,13,43,-12.70
2020,03,27,13,44,-12.60
2020,03,27,13,45,-12.60
2020,03,27,13,46,-12.60
2020,03,27,13,47,-12.60
2020,03,27,13,48,-12.60
2020,03,27,13,49,-12.60
2020,03,27,13,50,-12.60
2020,03,27,13,51,-12.60
2020,03,27,13,52,-12.60
2020,03,27,13,53,-12.60
2020,03,27,13,54,-12.60
2020,03,27,13,55,-12.60
2020,03,27,13,56,-12.60
2020,03,27,13,57,-12.60
2020,03,27,13,58,-12.60
2020,03,27,13,59,-12.60
2020,03,27,14,00,-12.60
2020,03,27,14,01,-12.60
2020,03,27,14,02,-12.60
2020,03,27,14,03,-12.60
2020,03,27,14,04,-12.50
2020,03,27,14,05,-12.50
2020,03,27,14,06,-12.50
2020,03,27,14,07,-12.50
2020,03,27,14,08,-12.50
2020,03,27,14,09,-12.40
2020,03,27,14,10,-12.40
2020,03,27,14,11,-12.40
2020,03,27,14,12,-12.30
2020,03,27,14,13,-12.30
2020,03,27,14,14,-12.30
2020,03,27,14,15,-12.30
2020,03,27,14,16,-12.30
2020,03,27,14,17,-12.30
2020,03,27,14,18,-12.20
2020,03,27,14,19,-12.20
2020,03,27,14,20,-12.30
2020,03,27,14,21,-12.30
2020,03,27,14,22,-12.40
2020,03,27,14,23,-12.50
2020,03,27,14,24,-12.60
2020,03,27,14,25,-12.70
2020,03,27,14,26,-12.70
2020,03,27,14,27,-12.80
2020,03,27,14,28,-12.80
2020,03,27,14,29,-12.80
2020,03,27,14,30,-12.70
2020,03,27,14,31,-12.70
2020,03,27,14,32,-12.70
2020,03,27,14,33,-12.60
2020,03,27,14,34,-12.60
2020,03,27,14,35,-12.50
2020,03,27,14,36,-12.50
2020,03,27,14,37,-12.40
2020,03,27,14,38,-12.40
2020,03,27,14,39,-12.30
2020,03,27,14,40,-12.30
2020,03,27,14,41,-12.30
2020,03,27,14,42,-12.30
2020,03,27,14,43,-12.30
2020,03,27,14,44,-12.30
2020,03,27,14,45,-12.30
2020,03,27,14,46,-12.30
2020,03,27,14,47,-12.30
2020,03,27,14,48,-12.20
2020,03,27,14,49,-12.20
2020,03,27,14,50,-12.10
2020,03,27,14,51,-12.10
2020,03,27,14,52,-12.10
2020,03,27,14,53,-12.10
2020,03,27,14,54,-12.00
2020,03,27,14,55,-12.00
2020,03,27,14,56,-11.90
2020,03,27,14,57,-11.90
2020,03,27,14,58,-11.90
2020,03,27,14,59,-11.80
2020,03,27,15,00,-11.70
2020,03,27,15,01,-11.70
2020,03,27,15,02,-11.60
2020,03,27,15,03,-11.60
2020,03,27,15,04,-11.50
2020,03,27,15,05,-11.50
2020,03,27,15,06,-11.40
2020,03,27,15,07,-11.40
2020,03,27,15,08,-11.30
2020,03,27,15,09,-11.30
2020,03,27,15,10,-11.30
2020,03,27,15,11,-11.30
2020,03,27,15,12,-11.30
2020,03,27,15,13,-11.30
2020,03,27,15,14,-11.30
2020,03,27,15,15,-11.30
2020,03,27,15,16,-11.30
2020,03,27,15,17,-11.20
2020,03,27,15,18,-11.20
2020,03,27,15,19,-11.10
2020,03,27,15,20,-11.10
2020,03,27,15,21,-11.00
2020,03,27,15,22,-11.00
2020,03,27,15,23,-10.90
2020,03,27,15,24,-10.90
2020,03,27,15,25,-10.80
2020,03,27,15,26,-10.80
2020,03,27,15,27,-10.80
2020,03,27,15,28,-10.80
2020,03,27,15,29,-10.90
2020,03,27,15,30,-11.00
2020,03,27,15,31,-11.10
2020,03,27,15,32,-11.20
2020,03,27,15,33,-11.30
2020,03,27,15,34,-11.50
2020,03,27,15,35,-11.50
2020,03,27,15,36,-11.60
2020,03,27,15,37,-11.60
2020,03,27,15,38,-11.70
2020,03,27,15,39,-11.70
2020,03,27,15,40,-11.70
2020,03,27,15,41,-11.60
2020,03,27,15,42,-11.50
2020,03,27,15,43,-11.50
2020,03,27,15,44,-11.50
2020,03,27,15,45,-11.50
2020,03,27,15,46,-11.50
2020,03,27,15,47,-11.60
2020,03,27,15,48,-11.60
2020,03,27,15,49,-11.60
2020,03,27,15,50,-11.60
2020,03,27,15,51,-11.60
2020,03,27,15,52,-11.60
2020,03,27,15,53,-11.60
2020,03,27,15,54,-11.50
2020,03,27,15,55,-11.50
2020,03,27,15,56,-11.40
2020,03,27,15,57,-11.40
2020,03,27,15,58,-11.40
2020,03,27,15,59,-11.50
2020,03,27,16,00,-11.40
2020,03,27,16,01,-11.40
2020,03,27,16,02,-11.40
2020,03,27,16,03,-11.30
2020,03,27,16,04,-11.30
2020,03,27,16,05,-11.30
2020,03,27,16,06,-11.30
2020,03,27,16,07,-11.20
2020,03,27,16,08,-11.20
2020,03,27,16,09,-11.20
2020,03,27,16,10,-11.10
2020,03,27,16,11,-11.00
2020,03,27,16,12,-11.00
2020,03,27,16,13,-10.90
2020,03,27,16,14,-10.90
2020,03,27,16,15,-10.80
2020,03,27,16,16,-10.80
2020,03,27,16,17,-10.80
2020,03,27,16,18,-10.80
2020,03,27,16,19,-10.80
2020,03,27,16,20,-10.80
2020,03,27,16,21,-10.80
2020,03,27,16,22,-10.80
2020,03,27,16,23,-10.70
2020,03,27,16,24,-10.70
2020,03,27,16,25,-10.70
2020,03,27,16,26,-10.60
2020,03,27,16,27,-10.60
2020,03,27,16,28,-10.60
2020,03,27,16,29,-10.60
2020,03,27,16,30,-10.70
2020,03,27,16,31,-10.70
2020,03,27,16,32,-10.70
2020,03,27,16,33,-10.80
2020,03,27,16,34,-10.80
2020,03,27,16,35,-10.80
2020,03,27,16,36,-10.90